Wetterdaten: Montag, 18.11.2013
Datum Zeit Temperatur Luftfeuchte Luftdruck Regen Wind Richtung Richtung Taupunkt Windchill Windben
18.11.2013 00:00 0,2 C 96 % 1018,8 hPa 0,0 l/m 2,3 km/h (1 Bft) SO 135 -0,4 C 0,0 C 1,9 km/h (1 Bft)
18.11.2013 00:05 0,2 C 96 % 1018,8 hPa 0,0 l/m 1,6 km/h (1 Bft) S-SW 202 -0,4 C 0,0 C 0,0 km/h (0 Bft)
18.11.2013 00:10 0,3 C 96 % 1018,8 hPa 0,0 l/m 0,8 km/h (0 Bft) S 180 -0,3 C 0,0 C 0,0 km/h (0 Bft)
18.11.2013 00:15 0,3 C 96 % 1018,8 hPa 0,0 l/m 0,2 km/h (0 Bft) S 180 -0,3 C 0,0 C 0,0 km/h (0 Bft)
18.11.2013 00:20 0,3 C 96 % 1018,8 hPa 0,0 l/m 0,2 km/h (0 Bft) S 180 -0,3 C 0,1 C 1,9 km/h (1 Bft)
18.11.2013 00:25 0,3 C 96 % 1018,5 hPa 0,0 l/m 1,6 km/h (1 Bft) W-SW 247 -0,3 C 0,1 C 4,3 km/h (1 Bft)
18.11.2013 00:30 0,3 C 96 % 1018,5 hPa 0,0 l/m 1,9 km/h (1 Bft) S 180 -0,3 C 0,1 C 3,5 km/h (1 Bft)
18.11.2013 00:35 0,3 C 96 % 1018,5 hPa 0,0 l/m 1,6 km/h (1 Bft) S-SO 157 -0,3 C 0,1 C 5,3 km/h (1 Bft)
18.11.2013 00:40 0,3 C 96 % 1018,5 hPa 0,0 l/m 1,9 km/h (1 Bft) O-NO 67 -0,3 C 0,1 C 3,1 km/h (1 Bft)
18.11.2013 00:45 0,2 C 96 % 1018,5 hPa 0,0 l/m 1,9 km/h (1 Bft) S 180 -0,4 C 0,0 C 3,1 km/h (1 Bft)
18.11.2013 00:50 0,2 C 96 % 1018,5 hPa 0,0 l/m 1,4 km/h (1 Bft) S 180 -0,4 C 0,0 C 0,0 km/h (0 Bft)
18.11.2013 00:55 0,2 C 96 % 1018,5 hPa 0,0 l/m 0,3 km/h (0 Bft) SW 225 -0,4 C 0,0 C 0,0 km/h (0 Bft)
18.11.2013 01:00 0,2 C 96 % 1018,5 hPa 0,0 l/m 0,0 km/h (0 Bft) SW 225 -0,4 C 0,0 C 0,0 km/h (0 Bft)
18.11.2013 01:05 0,1 C 96 % 1018,4 hPa 0,0 l/m 0,5 km/h (0 Bft) SW 225 -0,5 C -0,1 C 0,0 km/h (0 Bft)
18.11.2013 01:10 0,1 C 96 % 1018,4 hPa 0,0 l/m 0,5 km/h (0 Bft) SW 225 -0,5 C -0,1 C 0,0 km/h (0 Bft)
18.11.2013 01:15 0,1 C 96 % 1018,4 hPa 0,0 l/m 0,5 km/h (0 Bft) SW 225 -0,5 C -0,1 C 0,0 km/h (0 Bft)
18.11.2013 01:20 0,1 C 96 % 1018,4 hPa 0,0 l/m 0,5 km/h (0 Bft) SW 225 -0,5 C -0,1 C 0,0 km/h (0 Bft)
18.11.2013 01:25 0,1 C 96 % 1018,2 hPa 0,0 l/m 0,2 km/h (0 Bft) SW 225 -0,5 C -0,1 C 1,8 km/h (1 Bft)
18.11.2013 01:30 0,1 C 96 % 1018,2 hPa 0,0 l/m 0,5 km/h (0 Bft) SW 225 -0,5 C -0,1 C 0,0 km/h (0 Bft)
18.11.2013 01:35 0,1 C 96 % 1018,2 hPa 0,0 l/m 0,5 km/h (0 Bft) SW 225 -0,5 C -0,1 C 0,0 km/h (0 Bft)
18.11.2013 01:40 0,1 C 96 % 1018,2 hPa 0,0 l/m 0,0 km/h (0 Bft) SW 225 -0,5 C -0,1 C 0,0 km/h (0 Bft)
18.11.2013 01:45 0,1 C 96 % 1018,1 hPa 0,0 l/m 0,0 km/h (0 Bft) SW 225 -0,5 C -0,1 C 0,0 km/h (0 Bft)
18.11.2013 01:50 -0,1 C 96 % 1018,1 hPa 0,0 l/m 0,0 km/h (0 Bft) SW 225 -0,7 C -0,2 C 0,0 km/h (0 Bft)
18.11.2013 01:55 -0,1 C 96 % 1018,1 hPa 0,0 l/m 0,2 km/h (0 Bft) SW 225 -0,7 C -0,3 C 0,0 km/h (0 Bft)
18.11.2013 02:00 -0,1 C 96 % 1018,1 hPa 0,0 l/m 0,5 km/h (0 Bft) SW 225 -0,7 C -0,3 C 1,6 km/h (1 Bft)
18.11.2013 02:05 -0,1 C 96 % 1018,0 hPa 0,0 l/m 0,3 km/h (0 Bft) SW 225 -0,7 C -0,3 C 0,0 km/h (0 Bft)
18.11.2013 02:10 -0,2 C 96 % 1018,0 hPa 0,0 l/m 0,5 km/h (0 Bft) SW 225 -0,8 C -0,3 C 2,6 km/h (1 Bft)
18.11.2013 02:15 -0,3 C 96 % 1018,0 hPa 0,0 l/m 0,5 km/h (0 Bft) SW 225 -0,9 C -0,5 C 0,0 km/h (0 Bft)
18.11.2013 02:20 -0,5 C 96 % 1018,0 hPa 0,0 l/m 0,2 km/h (0 Bft) SW 225 -1,1 C -0,6 C 0,0 km/h (0 Bft)
18.11.2013 02:25 -0,5 C 96 % 1017,8 hPa 0,0 l/m 0,0 km/h (0 Bft) SW 225 -1,1 C -0,7 C 0,0 km/h (0 Bft)
18.11.2013 02:30 -0,6 C 96 % 1017,8 hPa 0,0 l/m 0,0 km/h (0 Bft) SW 225 -1,2 C -0,8 C 0,0 km/h (0 Bft)
18.11.2013 02:35 -0,8 C 96 % 1017,8 hPa 0,0 l/m 0,2 km/h (0 Bft) SW 225 -1,4 C -1,0 C 1,9 km/h (1 Bft)
18.11.2013 02:40 -0,9 C 96 % 1017,8 hPa 0,0 l/m 0,2 km/h (0 Bft) SW 225 -1,5 C -1,1 C 0,0 km/h (0 Bft)
18.11.2013 02:45 -0,9 C 96 % 1017,6 hPa 0,0 l/m 0,2 km/h (0 Bft) SW 225 -1,5 C -1,3 C 0,0 km/h (0 Bft)
18.11.2013 02:50 -1,0 C 95 % 1017,6 hPa 0,0 l/m 0,6 km/h (0 Bft) SW 225 -1,7 C -1,4 C 0,0 km/h (0 Bft)
18.11.2013 02:55 -1,1 C 95 % 1017,6 hPa 0,0 l/m 0,8 km/h (0 Bft) SW 225 -1,8 C -1,5 C 1,9 km/h (1 Bft)
18.11.2013 03:00 -1,2 C 95 % 1017,6 hPa 0,0 l/m 0,5 km/h (0 Bft) SW 225 -1,9 C -1,6 C 0,0 km/h (0 Bft)
18.11.2013 03:05 -1,4 C 95 % 1017,1 hPa 0,0 l/m 0,0 km/h (0 Bft) SW 225 -2,1 C -1,8 C 0,0 km/h (0 Bft)
18.11.2013 03:10 -1,3 C 95 % 1017,1 hPa 0,0 l/m 0,2 km/h (0 Bft) SW 225 -2,0 C -1,8 C 0,0 km/h (0 Bft)
18.11.2013 03:15 -1,6 C 95 % 1017,1 hPa 0,0 l/m 0,2 km/h (0 Bft) SW 225 -2,3 C -1,9 C 0,0 km/h (0 Bft)
18.11.2013 03:20 -1,5 C 95 % 1017,1 hPa 0,0 l/m 0,2 km/h (0 Bft) SW 225 -2,2 C -1,9 C 0,0 km/h (0 Bft)
18.11.2013 03:25 -1,6 C 95 % 1016,7 hPa 0,0 l/m 0,2 km/h (0 Bft) SW 225 -2,3 C -2,0 C 1,8 km/h (1 Bft)
18.11.2013 03:30 -1,6 C 95 % 1016,7 hPa 0,0 l/m 0,3 km/h (0 Bft) SW 225 -2,3 C -2,0 C 0,0 km/h (0 Bft)
18.11.2013 03:35 -1,6 C 95 % 1016,7 hPa 0,0 l/m 0,3 km/h (0 Bft) SW 225 -2,3 C -2,1 C 0,0 km/h (0 Bft)
18.11.2013 03:40 -1,8 C 95 % 1016,7 hPa 0,0 l/m 0,2 km/h (0 Bft) SW 225 -2,5 C -2,1 C 0,0 km/h (0 Bft)
18.11.2013 03:45 -2,0 C 95 % 1016,5 hPa 0,0 l/m 0,0 km/h (0 Bft) SW 225 -2,7 C -2,4 C 0,0 km/h (0 Bft)
18.11.2013 03:50 -2,0 C 95 % 1016,5 hPa 0,0 l/m 0,0 km/h (0 Bft) SW 225 -2,7 C -2,4 C 0,0 km/h (0 Bft)
18.11.2013 03:55 -2,0 C 95 % 1016,5 hPa 0,0 l/m 0,2 km/h (0 Bft) SW 225 -2,7 C -2,3 C 0,0 km/h (0 Bft)
18.11.2013 04:00 -2,0 C 95 % 1016,5 hPa 0,0 l/m 0,3 km/h (0 Bft) SW 225 -2,7 C -2,4 C 0,0 km/h (0 Bft)
18.11.2013 04:05 -1,8 C 95 % 1016,2 hPa 0,0 l/m 0,3 km/h (0 Bft) SW 225 -2,5 C -2,4 C 0,0 km/h (0 Bft)
18.11.2013 04:10 -1,5 C 95 % 1016,2 hPa 0,0 l/m 0,3 km/h (0 Bft) SW 225 -2,2 C -2,3 C 0,0 km/h (0 Bft)
18.11.2013 04:14 -1,6 C 95 % 1016,2 hPa 0,0 l/m 0,5 km/h (0 Bft) SW 225 -2,3 C -2,0 C 0,0 km/h (0 Bft)
18.11.2013 04:15 -1,6 C 95 % 1016,2 hPa 0,0 l/m 0,5 km/h (0 Bft) SW 225 -2,3 C -2,0 C 0,0 km/h (0 Bft)
18.11.2013 04:20 -1,5 C 95 % 1016,2 hPa 0,0 l/m 0,3 km/h (0 Bft) SW 225 -2,2 C -2,0 C 0,0 km/h (0 Bft)
18.11.2013 04:25 -1,3 C 96 % 1016,1 hPa 0,0 l/m 0,6 km/h (0 Bft) SW 225 -1,9 C -1,8 C 0,0 km/h (0 Bft)
18.11.2013 04:30 -1,2 C 96 % 1016,1 hPa 0,0 l/m 1,1 km/h (1 Bft) SW 225 -1,8 C -1,7 C 3,9 km/h (1 Bft)
18.11.2013 04:35 -1,1 C 96 % 1016,1 hPa 0,0 l/m 1,0 km/h (0 Bft) SW 225 -1,7 C -1,7 C 0,0 km/h (0 Bft)
18.11.2013 04:40 -1,3 C 96 % 1016,1 hPa 0,0 l/m 0,5 km/h (0 Bft) SW 225 -1,9 C -1,7 C 0,0 km/h (0 Bft)
18.11.2013 04:45 -1,6 C 96 % 1015,7 hPa 0,0 l/m 0,2 km/h (0 Bft) SW 225 -2,2 C -1,8 C 0,0 km/h (0 Bft)
18.11.2013 04:50 -1,7 C 96 % 1015,7 hPa 0,0 l/m 0,0 km/h (0 Bft) SW 225 -2,3 C -2,0 C 0,0 km/h (0 Bft)
18.11.2013 04:55 -1,6 C 96 % 1015,7 hPa 0,0 l/m 0,0 km/h (0 Bft) SW 225 -2,2 C -2,1 C 0,0 km/h (0 Bft)
18.11.2013 05:00 -1,7 C 96 % 1015,7 hPa 0,0 l/m 0,0 km/h (0 Bft) SW 225 -2,3 C -2,0 C 0,0 km/h (0 Bft)
18.11.2013 05:05 -1,9 C 96 % 1015,2 hPa 0,0 l/m 0,0 km/h (0 Bft) SW 225 -2,5 C -2,2 C 0,0 km/h (0 Bft)
18.11.2013 05:10 -2,1 C 95 % 1015,2 hPa 0,0 l/m 0,0 km/h (0 Bft) SW 225 -2,8 C -2,3 C 0,0 km/h (0 Bft)
18.11.2013 05:15 -1,8 C 95 % 1015,2 hPa 0,0 l/m 0,0 km/h (0 Bft) SW 225 -2,5 C -2,3 C 0,0 km/h (0 Bft)
18.11.2013 05:20 -2,0 C 95 % 1015,2 hPa 0,0 l/m 0,0 km/h (0 Bft) SW 225 -2,7 C -2,3 C 0,0 km/h (0 Bft)
18.11.2013 05:25 -1,8 C 95 % 1015,0 hPa 0,0 l/m 0,2 km/h (0 Bft) SW 225 -2,5 C -2,3 C 0,0 km/h (0 Bft)
18.11.2013 05:30 -1,5 C 96 % 1015,0 hPa 0,0 l/m 0,2 km/h (0 Bft) SW 225 -2,1 C -2,1 C 0,0 km/h (0 Bft)
18.11.2013 05:35 -1,2 C 96 % 1015,0 hPa 0,0 l/m 0,2 km/h (0 Bft) SW 225 -1,8 C -1,8 C 0,0 km/h (0 Bft)
18.11.2013 05:40 -1,3 C 96 % 1015,0 hPa 0,0 l/m 0,0 km/h (0 Bft) SW 225 -1,9 C -1,8 C 0,0 km/h (0 Bft)
18.11.2013 05:45 -1,4 C 96 % 1014,9 hPa 0,0 l/m 0,0 km/h (0 Bft) SW 225 -2,0 C -1,7 C 0,0 km/h (0 Bft)
18.11.2013 05:50 -0,9 C 96 % 1014,9 hPa 0,0 l/m 0,0 km/h (0 Bft) SW 225 -1,5 C -1,5 C 0,0 km/h (0 Bft)
18.11.2013 05:55 -1,0 C 96 % 1014,9 hPa 0,0 l/m 0,0 km/h (0 Bft) SW 225 -1,6 C -1,6 C 0,0 km/h (0 Bft)
18.11.2013 06:00 -1,0 C 96 % 1014,9 hPa 0,0 l/m 0,2 km/h (0 Bft) SW 225 -1,6 C -1,5 C 0,0 km/h (0 Bft)
18.11.2013 06:05 -1,3 C 96 % 1014,6 hPa 0,0 l/m 0,2 km/h (0 Bft) SW 225 -1,9 C -1,5 C 0,0 km/h (0 Bft)
18.11.2013 06:10 -1,2 C 96 % 1014,6 hPa 0,0 l/m 0,2 km/h (0 Bft) SW 225 -1,8 C -1,5 C 0,0 km/h (0 Bft)
18.11.2013 06:15 -1,5 C 96 % 1014,6 hPa 0,0 l/m 0,0 km/h (0 Bft) SW 225 -2,1 C -1,5 C 0,0 km/h (0 Bft)
18.11.2013 06:20 -1,3 C 96 % 1014,6 hPa 0,0 l/m 0,0 km/h (0 Bft) SW 225 -1,9 C -1,5 C 0,0 km/h (0 Bft)
18.11.2013 06:25 -1,1 C 96 % 1014,4 hPa 0,0 l/m 0,0 km/h (0 Bft) SW 225 -1,7 C -1,6 C 0,0 km/h (0 Bft)
18.11.2013 06:30 -0,8 C 96 % 1014,4 hPa 0,0 l/m 0,0 km/h (0 Bft) SW 225 -1,4 C -1,5 C 0,0 km/h (0 Bft)
18.11.2013 06:35 -1,0 C 96 % 1014,4 hPa 0,0 l/m 0,2 km/h (0 Bft) SW 225 -1,6 C -1,4 C 0,0 km/h (0 Bft)
18.11.2013 06:40 -1,0 C 96 % 1014,4 hPa 0,0 l/m 0,2 km/h (0 Bft) SW 225 -1,6 C -1,3 C 0,0 km/h (0 Bft)
18.11.2013 06:45 -1,2 C 96 % 1014,4 hPa 0,0 l/m 0,0 km/h (0 Bft) SW 225 -1,8 C -1,4 C 0,0 km/h (0 Bft)
18.11.2013 06:50 -1,2 C 96 % 1014,4 hPa 0,0 l/m 0,0 km/h (0 Bft) SW 225 -1,8 C -1,4 C 0,0 km/h (0 Bft)
18.11.2013 06:55 -0,8 C 96 % 1014,4 hPa 0,0 l/m 0,0 km/h (0 Bft) SW 225 -1,4 C -1,3 C 0,0 km/h (0 Bft)
18.11.2013 07:00 -1,1 C 96 % 1014,4 hPa 0,0 l/m 0,0 km/h (0 Bft) SW 225 -1,7 C -1,4 C 0,0 km/h (0 Bft)
18.11.2013 07:05 -1,1 C 96 % 1014,2 hPa 0,0 l/m 0,0 km/h (0 Bft) SW 225 -1,7 C -1,5 C 0,0 km/h (0 Bft)
18.11.2013 07:10 -1,0 C 96 % 1014,2 hPa 0,0 l/m 0,0 km/h (0 Bft) SW 225 -1,6 C -1,5 C 0,0 km/h (0 Bft)
18.11.2013 07:15 -1,3 C 96 % 1014,2 hPa 0,0 l/m 0,0 km/h (0 Bft) SW 225 -1,9 C -1,4 C 0,0 km/h (0 Bft)
18.11.2013 07:20 -1,1 C 96 % 1014,2 hPa 0,0 l/m 0,0 km/h (0 Bft) SW 225 -1,7 C -1,4 C 0,0 km/h (0 Bft)
18.11.2013 07:25 -0,9 C 96 % 1014,4 hPa 0,0 l/m 0,0 km/h (0 Bft) SW 225 -1,5 C -1,3 C 0,0 km/h (0 Bft)
18.11.2013 07:30 -1,2 C 96 % 1014,4 hPa 0,0 l/m 0,0 km/h (0 Bft) SW 225 -1,8 C -1,4 C 0,0 km/h (0 Bft)
18.11.2013 07:35 -0,9 C 96 % 1014,4 hPa 0,0 l/m 0,3 km/h (0 Bft) SW 225 -1,5 C -1,4 C 7,9 km/h (2 Bft)
18.11.2013 07:40 -0,8 C 96 % 1014,4 hPa 0,0 l/m 0,6 km/h (0 Bft) SW 225 -1,4 C -1,2 C 2,6 km/h (1 Bft)
18.11.2013 07:45 -0,5 C 96 % 1014,6 hPa 0,0 l/m 1,0 km/h (0 Bft) SW 225 -1,1 C -0,8 C 0,0 km/h (0 Bft)
18.11.2013 07:50 -0,4 C 96 % 1014,6 hPa 0,0 l/m 0,5 km/h (0 Bft) SW 225 -1,0 C -0,7 C 0,0 km/h (0 Bft)
18.11.2013 07:55 -0,7 C 96 % 1014,6 hPa 0,0 l/m 0,2 km/h (0 Bft) SW 225 -1,3 C -0,8 C 0,0 km/h (0 Bft)
18.11.2013 08:00 -0,9 C 96 % 1014,6 hPa 0,0 l/m 0,0 km/h (0 Bft) SW 225 -1,5 C -0,9 C 0,0 km/h (0 Bft)
18.11.2013 08:05 -0,9 C 96 % 1014,6 hPa 0,0 l/m 0,0 km/h (0 Bft) SW 225 -1,5 C -1,0 C 0,0 km/h (0 Bft)
18.11.2013 08:10 -0,9 C 96 % 1014,6 hPa 0,0 l/m 0,0 km/h (0 Bft) SW 225 -1,5 C -1,0 C 0,0 km/h (0 Bft)
18.11.2013 08:15 -0,8 C 96 % 1014,6 hPa 0,0 l/m 0,0 km/h (0 Bft) SW 225 -1,4 C -0,9 C 0,0 km/h (0 Bft)
18.11.2013 08:20 -0,7 C 96 % 1014,6 hPa 0,0 l/m 0,0 km/h (0 Bft) SW 225 -1,3 C -0,9 C 0,0 km/h (0 Bft)
18.11.2013 08:25 -0,9 C 96 % 1014,5 hPa 0,0 l/m 0,0 km/h (0 Bft) SW 225 -1,5 C -0,8 C 0,0 km/h (0 Bft)
18.11.2013 08:30 -0,8 C 96 % 1014,5 hPa 0,0 l/m 0,0 km/h (0 Bft) SW 225 -1,4 C -0,8 C 0,0 km/h (0 Bft)
18.11.2013 08:35 -0,7 C 96 % 1014,5 hPa 0,0 l/m 0,0 km/h (0 Bft) SW 225 -1,3 C -0,7 C 0,0 km/h (0 Bft)
18.11.2013 08:40 -0,7 C 96 % 1014,5 hPa 0,0 l/m 0,0 km/h (0 Bft) SW 225 -1,3 C -0,6 C 0,0 km/h (0 Bft)
18.11.2013 08:45 -0,3 C 96 % 1014,4 hPa 0,0 l/m 0,0 km/h (0 Bft) SW 225 -0,9 C -0,6 C 0,0 km/h (0 Bft)
18.11.2013 08:50 -0,3 C 96 % 1014,4 hPa 0,0 l/m 0,0 km/h (0 Bft) SW 225 -0,9 C -0,5 C 0,0 km/h (0 Bft)
18.11.2013 08:55 -0,1 C 96 % 1014,4 hPa 0,0 l/m 0,0 km/h (0 Bft) SW 225 -0,7 C -0,4 C 0,0 km/h (0 Bft)
18.11.2013 09:00 0,0 C 96 % 1014,4 hPa 0,0 l/m 0,0 km/h (0 Bft) SW 225 -0,6 C -0,2 C 0,0 km/h (0 Bft)
18.11.2013 09:05 0,1 C 96 % 1014,2 hPa 0,0 l/m 0,0 km/h (0 Bft) SW 225 -0,5 C 0,0 C 0,0 km/h (0 Bft)
18.11.2013 09:10 0,1 C 96 % 1014,2 hPa 0,0 l/m 0,0 km/h (0 Bft) SW 225 -0,5 C 0,1 C 0,0 km/h (0 Bft)
18.11.2013 09:13 0,3 C 96 % 1014,2 hPa 0,0 l/m 0,0 km/h (0 Bft) SW 225 -0,3 C 0,1 C 0,0 km/h (0 Bft)
18.11.2013 09:15 0,3 C 96 % 1014,2 hPa 0,0 l/m 0,0 km/h (0 Bft) SW 225 -0,3 C 0,1 C 0,0 km/h (0 Bft)
18.11.2013 09:20 0,5 C 96 % 1014,2 hPa 0,0 l/m 0,0 km/h (0 Bft) SW 225 -0,1 C 0,2 C 0,0 km/h (0 Bft)
18.11.2013 09:25 0,7 C 96 % 1014,1 hPa 0,0 l/m 0,0 km/h (0 Bft) SW 225 0,1 C 0,2 C 0,0 km/h (0 Bft)
18.11.2013 09:30 0,6 C 96 % 1014,1 hPa 0,0 l/m 0,2 km/h (0 Bft) SW 225 0,0 C 0,4 C 2,1 km/h (1 Bft)
18.11.2013 09:35 0,7 C 96 % 1014,1 hPa 0,0 l/m 0,5 km/h (0 Bft) SW 225 0,1 C 0,6 C 0,0 km/h (0 Bft)
18.11.2013 09:40 0,8 C 96 % 1014,1 hPa 0,0 l/m 0,5 km/h (0 Bft) SW 225 0,2 C 0,7 C 0,0 km/h (0 Bft)
18.11.2013 09:45 1,4 C 96 % 1013,9 hPa 0,0 l/m 0,2 km/h (0 Bft) SW 225 0,8 C 1,1 C 0,0 km/h (0 Bft)
18.11.2013 09:50 1,5 C 96 % 1013,9 hPa 0,0 l/m 0,2 km/h (0 Bft) SW 225 0,9 C 1,4 C 0,0 km/h (0 Bft)
18.11.2013 09:55 1,6 C 96 % 1013,9 hPa 0,0 l/m 0,2 km/h (0 Bft) SW 225 1,0 C 1,5 C 0,0 km/h (0 Bft)
18.11.2013 10:00 1,6 C 96 % 1013,9 hPa 0,0 l/m 0,5 km/h (0 Bft) SW 225 1,0 C 1,9 C 0,0 km/h (0 Bft)
18.11.2013 10:05 1,9 C 97 % 1013,8 hPa 0,0 l/m 0,5 km/h (0 Bft) W 270 1,5 C 2,2 C 0,0 km/h (0 Bft)
18.11.2013 10:10 1,9 C 97 % 1013,8 hPa 0,0 l/m 0,0 km/h (0 Bft) W 270 1,5 C 2,5 C 0,0 km/h (0 Bft)
18.11.2013 10:15 2,3 C 96 % 1013,8 hPa 0,0 l/m 0,0 km/h (0 Bft) S-SO 157 1,7 C 2,7 C 0,0 km/h (0 Bft)
18.11.2013 10:20 2,4 C 96 % 1013,8 hPa 0,0 l/m 0,0 km/h (0 Bft) SO 135 1,8 C 3,7 C 0,0 km/h (0 Bft)
18.11.2013 10:25 2,6 C 96 % 1013,9 hPa 0,0 l/m 0,0 km/h (0 Bft) S-SW 202 2,0 C 4,7 C 0,0 km/h (0 Bft)
18.11.2013 10:30 2,9 C 96 % 1013,9 hPa 0,0 l/m 0,2 km/h (0 Bft) O-SO 112 2,3 C 5,2 C 2,6 km/h (1 Bft)
18.11.2013 10:35 3,3 C 96 % 1013,9 hPa 0,0 l/m 1,8 km/h (1 Bft) SO 135 2,7 C 5,8 C 1,8 km/h (1 Bft)
18.11.2013 10:40 3,3 C 96 % 1013,9 hPa 0,0 l/m 2,7 km/h (1 Bft) O-SO 112 2,7 C 6,6 C 4,0 km/h (1 Bft)
18.11.2013 10:45 3,8 C 96 % 1014,0 hPa 0,0 l/m 2,7 km/h (1 Bft) SO 135 3,2 C 8,6 C 2,7 km/h (1 Bft)
18.11.2013 10:50 3,9 C 96 % 1014,0 hPa 0,0 l/m 3,1 km/h (1 Bft) O-SO 112 3,3 C 9,8 C 4,8 km/h (1 Bft)
18.11.2013 10:55 3,9 C 96 % 1014,0 hPa 0,0 l/m 2,1 km/h (1 Bft) NO 45 3,3 C 11,0 C 0,0 km/h (0 Bft)
18.11.2013 11:00 3,8 C 96 % 1014,0 hPa 0,0 l/m 1,3 km/h (1 Bft) SO 135 3,2 C 11,6 C 3,1 km/h (1 Bft)
18.11.2013 11:05 4,4 C 96 % 1013,8 hPa 0,0 l/m 1,6 km/h (1 Bft) SO 135 3,8 C 12,3 C 3,4 km/h (1 Bft)
18.11.2013 11:10 4,6 C 96 % 1013,8 hPa 0,0 l/m 2,6 km/h (1 Bft) O-NO 67 4,0 C 12,4 C 2,6 km/h (1 Bft)
18.11.2013 11:15 4,8 C 96 % 1013,8 hPa 0,0 l/m 1,9 km/h (1 Bft) O 90 4,2 C 12,9 C 2,4 km/h (1 Bft)
18.11.2013 11:20 5,1 C 96 % 1013,8 hPa 0,0 l/m 1,1 km/h (1 Bft) O-NO 67 4,5 C 13,0 C 0,0 km/h (0 Bft)
18.11.2013 11:25 5,2 C 96 % 1013,6 hPa 0,0 l/m 2,1 km/h (1 Bft) O-SO 112 4,6 C 13,4 C 4,3 km/h (1 Bft)
18.11.2013 11:30 5,2 C 96 % 1013,6 hPa 0,0 l/m 2,9 km/h (1 Bft) O-SO 112 4,6 C 13,3 C 3,4 km/h (1 Bft)
18.11.2013 11:35 5,4 C 96 % 1013,6 hPa 0,0 l/m 2,4 km/h (1 Bft) O 90 4,8 C 13,7 C 0,0 km/h (0 Bft)
18.11.2013 11:40 5,5 C 96 % 1013,6 hPa 0,0 l/m 1,6 km/h (1 Bft) SO 135 4,9 C 14,0 C 5,0 km/h (1 Bft)
18.11.2013 11:45 5,8 C 96 % 1013,4 hPa 0,0 l/m 1,6 km/h (1 Bft) NO 45 5,2 C 14,0 C 0,0 km/h (0 Bft)
18.11.2013 11:50 5,9 C 96 % 1013,4 hPa 0,0 l/m 1,4 km/h (1 Bft) O 90 5,3 C 14,0 C 2,6 km/h (1 Bft)
18.11.2013 11:55 6,0 C 95 % 1013,4 hPa 0,0 l/m 0,3 km/h (0 Bft) O-SO 112 5,3 C 14,3 C 0,0 km/h (0 Bft)
18.11.2013 12:00 6,0 C 95 % 1013,4 hPa 0,0 l/m 0,2 km/h (0 Bft) O-SO 112 5,3 C 14,7 C 0,0 km/h (0 Bft)
18.11.2013 12:05 6,2 C 95 % 1013,4 hPa 0,0 l/m 0,6 km/h (0 Bft) O 90 5,5 C 15,2 C 3,4 km/h (1 Bft)
18.11.2013 12:10 6,3 C 95 % 1013,4 hPa 0,0 l/m 1,1 km/h (1 Bft) O 90 5,6 C 15,0 C 2,1 km/h (1 Bft)
18.11.2013 12:15 6,1 C 95 % 1013,4 hPa 0,0 l/m 1,0 km/h (0 Bft) O-SO 112 5,4 C 15,3 C 1,8 km/h (1 Bft)
18.11.2013 12:20 6,5 C 95 % 1013,4 hPa 0,0 l/m 1,3 km/h (1 Bft) O-NO 67 5,8 C 15,3 C 4,8 km/h (1 Bft)
18.11.2013 12:25 6,7 C 95 % 1013,1 hPa 0,0 l/m 3,5 km/h (1 Bft) O 90 6,0 C 14,3 C 2,9 km/h (1 Bft)
18.11.2013 12:30 6,7 C 95 % 1013,1 hPa 0,0 l/m 3,7 km/h (1 Bft) O-NO 67 6,0 C 14,1 C 3,7 km/h (1 Bft)
18.11.2013 12:35 6,8 C 95 % 1013,1 hPa 0,0 l/m 2,3 km/h (1 Bft) O 90 6,1 C 14,1 C 0,0 km/h (0 Bft)
18.11.2013 12:40 6,7 C 95 % 1013,1 hPa 0,0 l/m 1,1 km/h (1 Bft) O 90 6,0 C 14,5 C 0,0 km/h (0 Bft)
18.11.2013 12:45 6,8 C 94 % 1012,9 hPa 0,0 l/m 0,2 km/h (0 Bft) O 90 5,9 C 14,9 C 0,0 km/h (0 Bft)
18.11.2013 12:50 6,8 C 94 % 1012,9 hPa 0,0 l/m 0,3 km/h (0 Bft) O 90 5,9 C 15,0 C 4,3 km/h (1 Bft)
18.11.2013 12:55 7,1 C 94 % 1012,9 hPa 0,0 l/m 2,3 km/h (1 Bft) O 90 6,2 C 15,0 C 5,8 km/h (2 Bft)
18.11.2013 13:00 7,1 C 93 % 1012,9 hPa 0,0 l/m 3,9 km/h (1 Bft) NO 45 6,0 C 14,8 C 4,7 km/h (1 Bft)
18.11.2013 13:05 7,3 C 92 % 1012,8 hPa 0,0 l/m 3,5 km/h (1 Bft) NO 45 6,1 C 14,8 C 0,0 km/h (0 Bft)
18.11.2013 13:10 7,2 C 92 % 1012,8 hPa 0,0 l/m 2,6 km/h (1 Bft) NO 45 6,0 C 15,0 C 5,0 km/h (1 Bft)
18.11.2013 13:15 7,2 C 91 % 1012,8 hPa 0,0 l/m 1,8 km/h (1 Bft) N 360 5,8 C 15,3 C 0,0 km/h (0 Bft)
18.11.2013 13:20 7,2 C 90 % 1012,8 hPa 0,0 l/m 1,9 km/h (1 Bft) NO 45 5,7 C 15,5 C 4,8 km/h (1 Bft)
18.11.2013 13:25 7,4 C 90 % 1012,8 hPa 0,0 l/m 1,9 km/h (1 Bft) N 360 5,9 C 15,6 C 1,9 km/h (1 Bft)
18.11.2013 13:30 7,5 C 89 % 1012,8 hPa 0,0 l/m 3,4 km/h (1 Bft) N-NO 22 5,8 C 15,5 C 5,8 km/h (2 Bft)
18.11.2013 13:35 7,5 C 88 % 1012,8 hPa 0,0 l/m 3,7 km/h (1 Bft) N-NW 337 5,6 C 15,3 C 3,4 km/h (1 Bft)
18.11.2013 13:40 7,6 C 88 % 1012,8 hPa 0,0 l/m 3,5 km/h (1 Bft) NO 45 5,7 C 15,3 C 4,0 km/h (1 Bft)
18.11.2013 13:45 8,4 C 83 % 1013,2 hPa 0,0 l/m 2,7 km/h (1 Bft) O 90 5,7 C 15,4 C 4,5 km/h (1 Bft)
18.11.2013 13:50 8,8 C 81 % 1013,2 hPa 0,0 l/m 2,7 km/h (1 Bft) N 360 5,7 C 15,5 C 4,8 km/h (1 Bft)
18.11.2013 13:55 9,3 C 80 % 1013,2 hPa 0,0 l/m 3,5 km/h (1 Bft) N-NW 337 6,0 C 15,3 C 2,1 km/h (1 Bft)
18.11.2013 14:00 9,4 C 79 % 1013,2 hPa 0,0 l/m 4,2 km/h (1 Bft) NO 45 5,9 C 15,1 C 5,1 km/h (1 Bft)
18.11.2013 14:05 9,8 C 75 % 1013,1 hPa 0,0 l/m 3,5 km/h (1 Bft) N 360 5,6 C 15,0 C 6,9 km/h (2 Bft)
18.11.2013 14:10 9,7 C 79 % 1013,1 hPa 0,0 l/m 3,2 km/h (1 Bft) NO 45 6,2 C 15,0 C 2,1 km/h (1 Bft)
18.11.2013 14:13 9,8 C 78 % 1013,1 hPa 0,0 l/m 2,6 km/h (1 Bft) N 360 6,1 C 15,2 C 3,9 km/h (1 Bft)
18.11.2013 14:15 9,8 C 78 % 1013,1 hPa 0,0 l/m 2,6 km/h (1 Bft) N 360 6,1 C 15,2 C 3,9 km/h (1 Bft)
18.11.2013 14:20 9,3 C 79 % 1013,1 hPa 0,0 l/m 2,4 km/h (1 Bft) N 360 5,8 C 15,2 C 5,3 km/h (1 Bft)
18.11.2013 14:25 9,1 C 79 % 1013,2 hPa 0,0 l/m 3,2 km/h (1 Bft) N 360 5,7 C 14,8 C 0,0 km/h (0 Bft)
18.11.2013 14:30 8,9 C 82 % 1013,2 hPa 0,0 l/m 3,1 km/h (1 Bft) SW 225 6,0 C 14,8 C 4,8 km/h (1 Bft)
18.11.2013 14:35 8,9 C 80 % 1013,2 hPa 0,0 l/m 2,1 km/h (1 Bft) NO 45 5,6 C 14,0 C 2,9 km/h (1 Bft)
18.11.2013 14:40 8,8 C 79 % 1013,2 hPa 0,0 l/m 2,4 km/h (1 Bft) O-NO 67 5,4 C 13,0 C 3,2 km/h (1 Bft)
18.11.2013 14:45 8,5 C 80 % 1013,0 hPa 0,0 l/m 2,4 km/h (1 Bft) N-NO 22 5,3 C 11,7 C 3,2 km/h (1 Bft)
18.11.2013 14:50 8,6 C 79 % 1013,0 hPa 0,0 l/m 2,3 km/h (1 Bft) N-NO 22 5,2 C 11,2 C 2,1 km/h (1 Bft)
18.11.2013 14:55 8,6 C 80 % 1013,0 hPa 0,0 l/m 1,3 km/h (1 Bft) N-NO 22 5,3 C 10,5 C 0,0 km/h (0 Bft)
18.11.2013 15:00 8,4 C 81 % 1013,0 hPa 0,0 l/m 1,3 km/h (1 Bft) O-NO 67 5,3 C 10,1 C 2,3 km/h (1 Bft)
18.11.2013 15:05 8,2 C 81 % 1012,6 hPa 0,0 l/m 1,4 km/h (1 Bft) O-NO 67 5,1 C 9,4 C 3,5 km/h (1 Bft)
18.11.2013 15:10 8,0 C 82 % 1012,6 hPa 0,0 l/m 1,6 km/h (1 Bft) NO 45 5,1 C 9,2 C 1,9 km/h (1 Bft)
18.11.2013 15:15 7,8 C 83 % 1012,6 hPa 0,0 l/m 1,3 km/h (1 Bft) O-NO 67 5,1 C 8,8 C 0,0 km/h (0 Bft)
18.11.2013 15:20 7,5 C 84 % 1012,6 hPa 0,0 l/m 0,6 km/h (0 Bft) O 90 5,0 C 8,5 C 3,7 km/h (1 Bft)
18.11.2013 15:25 7,7 C 84 % 1012,3 hPa 0,0 l/m 1,0 km/h (0 Bft) N 360 5,2 C 8,5 C 4,2 km/h (1 Bft)
18.11.2013 15:30 7,8 C 83 % 1012,3 hPa 0,0 l/m 1,0 km/h (0 Bft) NO 45 5,1 C 8,5 C 0,0 km/h (0 Bft)
18.11.2013 15:35 7,8 C 83 % 1012,3 hPa 0,0 l/m 1,0 km/h (0 Bft) O 90 5,1 C 8,4 C 2,6 km/h (1 Bft)
18.11.2013 15:40 7,7 C 84 % 1012,3 hPa 0,0 l/m 0,5 km/h (0 Bft) O-NO 67 5,2 C 8,3 C 0,0 km/h (0 Bft)
18.11.2013 15:45 7,5 C 84 % 1012,2 hPa 0,0 l/m 0,5 km/h (0 Bft) N-NO 22 5,0 C 8,2 C 0,0 km/h (0 Bft)
18.11.2013 15:50 7,1 C 84 % 1012,2 hPa 0,0 l/m 0,2 km/h (0 Bft) NO 45 4,6 C 8,0 C 0,0 km/h (0 Bft)
18.11.2013 15:55 7,2 C 85 % 1012,2 hPa 0,0 l/m 1,0 km/h (0 Bft) O 90 4,9 C 7,8 C 3,1 km/h (1 Bft)
18.11.2013 16:00 7,2 C 85 % 1012,2 hPa 0,0 l/m 1,1 km/h (1 Bft) NO 45 4,9 C 7,6 C 1,8 km/h (1 Bft)
18.11.2013 16:05 7,1 C 84 % 1012,2 hPa 0,0 l/m 2,1 km/h (1 Bft) O-NO 67 4,6 C 7,3 C 3,1 km/h (1 Bft)
18.11.2013 16:10 7,0 C 83 % 1012,2 hPa 0,0 l/m 3,2 km/h (1 Bft) NO 45 4,3 C 7,2 C 4,8 km/h (1 Bft)
18.11.2013 16:15 6,7 C 84 % 1012,2 hPa 0,0 l/m 4,0 km/h (1 Bft) O-NO 67 4,2 C 6,6 C 4,8 km/h (1 Bft)
18.11.2013 16:20 6,6 C 84 % 1012,2 hPa 0,0 l/m 4,3 km/h (1 Bft) O-SO 112 4,1 C 6,3 C 5,3 km/h (1 Bft)
18.11.2013 16:25 6,3 C 84 % 1012,1 hPa 0,0 l/m 4,8 km/h (1 Bft) O-NO 67 3,8 C 5,7 C 5,0 km/h (1 Bft)
18.11.2013 16:30 6,3 C 84 % 1012,1 hPa 0,0 l/m 5,3 km/h (1 Bft) O 90 3,8 C 5,4 C 5,3 km/h (1 Bft)
18.11.2013 16:35 6,0 C 85 % 1012,1 hPa 0,0 l/m 5,0 km/h (1 Bft) O-NO 67 3,7 C 5,3 C 2,4 km/h (1 Bft)
18.11.2013 16:40 5,8 C 86 % 1012,1 hPa 0,0 l/m 4,2 km/h (1 Bft) NO 45 3,6 C 5,3 C 3,7 km/h (1 Bft)
18.11.2013 16:45 5,6 C 86 % 1012,2 hPa 0,0 l/m 3,5 km/h (1 Bft) NO 45 3,4 C 5,0 C 6,3 km/h (2 Bft)
18.11.2013 16:50 5,3 C 87 % 1012,2 hPa 0,0 l/m 4,5 km/h (1 Bft) NO 45 3,3 C 4,3 C 4,2 km/h (1 Bft)
18.11.2013 16:55 4,6 C 88 % 1012,2 hPa 0,0 l/m 3,7 km/h (1 Bft) O-NO 67 2,8 C 4,0 C 0,0 km/h (0 Bft)
18.11.2013 17:00 4,3 C 88 % 1012,2 hPa 0,0 l/m 2,7 km/h (1 Bft) O-NO 67 2,5 C 4,0 C 4,7 km/h (1 Bft)
18.11.2013 17:05 4,2 C 89 % 1012,0 hPa 0,0 l/m 3,5 km/h (1 Bft) O-NO 67 2,6 C 3,2 C 4,2 km/h (1 Bft)
18.11.2013 17:10 4,1 C 89 % 1012,0 hPa 0,0 l/m 4,5 km/h (1 Bft) O-NO 67 2,5 C 2,6 C 4,5 km/h (1 Bft)
18.11.2013 17:15 4,1 C 90 % 1012,0 hPa 0,0 l/m 4,2 km/h (1 Bft) O 90 2,6 C 2,7 C 5,1 km/h (1 Bft)
18.11.2013 17:20 4,0 C 90 % 1012,0 hPa 0,0 l/m 3,5 km/h (1 Bft) NO 45 2,5 C 3,1 C 0,0 km/h (0 Bft)
18.11.2013 17:25 3,0 C 90 % 1011,9 hPa 0,0 l/m 1,1 km/h (1 Bft) O-SO 112 1,5 C 2,9 C 0,0 km/h (0 Bft)
18.11.2013 17:30 3,0 C 90 % 1011,9 hPa 0,0 l/m 0,0 km/h (0 Bft) NO 45 1,5 C 2,5 C 0,0 km/h (0 Bft)
18.11.2013 17:35 2,7 C 91 % 1011,9 hPa 0,0 l/m 0,0 km/h (0 Bft) O-SO 112 1,4 C 2,2 C 0,0 km/h (0 Bft)
18.11.2013 17:40 2,3 C 91 % 1011,9 hPa 0,0 l/m 0,0 km/h (0 Bft) NO 45 1,0 C 2,1 C 0,0 km/h (0 Bft)
18.11.2013 17:45 2,4 C 92 % 1011,8 hPa 0,0 l/m 0,0 km/h (0 Bft) NO 45 1,2 C 2,0 C 0,0 km/h (0 Bft)
18.11.2013 17:50 2,2 C 92 % 1011,8 hPa 0,0 l/m 0,0 km/h (0 Bft) O 90 1,0 C 1,9 C 0,0 km/h (0 Bft)
18.11.2013 17:55 2,4 C 92 % 1011,8 hPa 0,0 l/m 0,5 km/h (0 Bft) O 90 1,2 C 1,8 C 1,8 km/h (1 Bft)
18.11.2013 18:00 2,3 C 92 % 1011,8 hPa 0,0 l/m 0,6 km/h (0 Bft) O-SO 112 1,1 C 2,0 C 0,0 km/h (0 Bft)
18.11.2013 18:05 1,8 C 92 % 1011,9 hPa 0,0 l/m 0,3 km/h (0 Bft) O-SO 112 0,6 C 1,8 C 0,0 km/h (0 Bft)
18.11.2013 18:10 1,6 C 92 % 1011,9 hPa 0,0 l/m 0,0 km/h (0 Bft) O 90 0,4 C 1,6 C 0,0 km/h (0 Bft)
18.11.2013 18:15 1,8 C 93 % 1011,9 hPa 0,0 l/m 0,3 km/h (0 Bft) O-SO 112 0,8 C 1,5 C 0,0 km/h (0 Bft)
18.11.2013 18:20 1,5 C 93 % 1011,9 hPa 0,0 l/m 0,3 km/h (0 Bft) O-SO 112 0,5 C 1,5 C 0,0 km/h (0 Bft)
18.11.2013 18:25 1,3 C 93 % 1011,8 hPa 0,0 l/m 0,0 km/h (0 Bft) SO 135 0,3 C 1,4 C 0,0 km/h (0 Bft)
18.11.2013 18:30 2,1 C 93 % 1011,8 hPa 0,0 l/m 0,3 km/h (0 Bft) O-SO 112 1,1 C 1,3 C 3,7 km/h (1 Bft)
18.11.2013 18:35 2,2 C 93 % 1011,8 hPa 0,0 l/m 2,1 km/h (1 Bft) O 90 1,2 C 1,8 C 2,4 km/h (1 Bft)
18.11.2013 18:40 1,9 C 93 % 1011,8 hPa 0,0 l/m 2,6 km/h (1 Bft) O-NO 67 0,9 C 1,8 C 0,0 km/h (0 Bft)
18.11.2013 18:45 1,3 C 93 % 1011,5 hPa 0,0 l/m 0,8 km/h (0 Bft) SO 135 0,3 C 1,5 C 0,0 km/h (0 Bft)
18.11.2013 18:50 1,5 C 93 % 1011,5 hPa 0,0 l/m 0,5 km/h (0 Bft) NO 45 0,5 C 1,3 C 3,2 km/h (1 Bft)
18.11.2013 18:55 1,2 C 93 % 1011,5 hPa 0,0 l/m 0,5 km/h (0 Bft) O-SO 112 0,2 C 1,2 C 0,0 km/h (0 Bft)
18.11.2013 19:00 1,8 C 94 % 1011,5 hPa 0,0 l/m 1,1 km/h (1 Bft) O-SO 112 0,9 C 1,2 C 3,2 km/h (1 Bft)
18.11.2013 19:05 1,4 C 94 % 1011,3 hPa 0,0 l/m 2,3 km/h (1 Bft) O-SO 112 0,5 C 1,3 C 3,9 km/h (1 Bft)
18.11.2013 19:10 1,7 C 94 % 1011,3 hPa 0,0 l/m 3,5 km/h (1 Bft) NO 45 0,8 C 0,7 C 5,5 km/h (1 Bft)
18.11.2013 19:13 1,7 C 94 % 1011,3 hPa 0,0 l/m 3,5 km/h (1 Bft) NO 45 0,8 C 0,9 C 0,0 km/h (0 Bft)
18.11.2013 19:15 1,7 C 94 % 1011,3 hPa 0,0 l/m 3,5 km/h (1 Bft) NO 45 0,8 C 0,9 C 0,0 km/h (0 Bft)
18.11.2013 19:20 1,1 C 94 % 1011,3 hPa 0,0 l/m 1,8 km/h (1 Bft) NO 45 0,2 C 1,3 C 0,0 km/h (0 Bft)
18.11.2013 19:25 0,6 C 94 % 1011,3 hPa 0,0 l/m 0,0 km/h (0 Bft) NO 45 -0,3 C 0,7 C 0,0 km/h (0 Bft)
18.11.2013 19:30 1,0 C 94 % 1011,3 hPa 0,0 l/m 1,1 km/h (1 Bft) NO 45 0,1 C 0,6 C 5,3 km/h (1 Bft)
18.11.2013 19:35 1,4 C 94 % 1011,3 hPa 0,0 l/m 2,4 km/h (1 Bft) N-NO 22 0,5 C 0,9 C 0,0 km/h (0 Bft)
18.11.2013 19:40 0,8 C 94 % 1011,3 hPa 0,0 l/m 2,1 km/h (1 Bft) O 90 -0,1 C 0,7 C 2,1 km/h (1 Bft)
18.11.2013 19:45 0,7 C 94 % 1011,1 hPa 0,0 l/m 0,5 km/h (0 Bft) N-NO 22 -0,2 C 0,6 C 0,0 km/h (0 Bft)
18.11.2013 19:50 0,4 C 94 % 1011,1 hPa 0,0 l/m 0,3 km/h (0 Bft) N-NO 22 -0,5 C 0,4 C 0,0 km/h (0 Bft)
18.11.2013 19:55 0,5 C 94 % 1011,1 hPa 0,0 l/m 0,0 km/h (0 Bft) NO 45 -0,4 C 0,1 C 0,0 km/h (0 Bft)
18.11.2013 20:00 0,6 C 94 % 1011,1 hPa 0,0 l/m 0,6 km/h (0 Bft) O-NO 67 -0,3 C 0,1 C 4,8 km/h (1 Bft)
18.11.2013 20:05 1,2 C 94 % 1010,9 hPa 0,0 l/m 1,6 km/h (1 Bft) NO 45 0,3 C 0,4 C 0,0 km/h (0 Bft)
18.11.2013 20:10 1,1 C 95 % 1010,9 hPa 0,0 l/m 1,4 km/h (1 Bft) N-NO 22 0,4 C 0,3 C 0,0 km/h (0 Bft)
18.11.2013 20:15 1,0 C 95 % 1010,9 hPa 0,0 l/m 0,6 km/h (0 Bft) N 360 0,3 C 0,3 C 0,0 km/h (0 Bft)
18.11.2013 20:20 0,5 C 95 % 1010,9 hPa 0,0 l/m 0,6 km/h (0 Bft) N-NO 22 -0,2 C 0,2 C 0,0 km/h (0 Bft)
18.11.2013 20:25 0,3 C 95 % 1010,8 hPa 0,0 l/m 0,0 km/h (0 Bft) N-NO 22 -0,4 C -0,1 C 0,0 km/h (0 Bft)
18.11.2013 20:30 0,1 C 95 % 1010,8 hPa 0,0 l/m 0,0 km/h (0 Bft) N 360 -0,6 C -0,1 C 0,0 km/h (0 Bft)
18.11.2013 20:35 0,3 C 95 % 1010,8 hPa 0,0 l/m 1,0 km/h (0 Bft) NO 45 -0,4 C -0,2 C 5,5 km/h (1 Bft)
18.11.2013 20:40 1,1 C 95 % 1010,8 hPa 0,0 l/m 2,4 km/h (1 Bft) W-SW 247 0,4 C 0,3 C 0,0 km/h (0 Bft)
18.11.2013 20:45 0,6 C 95 % 1010,7 hPa 0,0 l/m 3,2 km/h (1 Bft) NO 45 -0,1 C -0,3 C 4,8 km/h (1 Bft)
18.11.2013 20:50 0,6 C 95 % 1010,7 hPa 0,0 l/m 1,1 km/h (1 Bft) NO 45 -0,1 C 0,3 C 0,0 km/h (0 Bft)
18.11.2013 20:55 0,0 C 95 % 1010,7 hPa 0,0 l/m 0,8 km/h (0 Bft) N-NO 22 -0,7 C 0,2 C 0,0 km/h (0 Bft)
18.11.2013 21:00 -0,1 C 95 % 1010,7 hPa 0,0 l/m 0,0 km/h (0 Bft) O-SO 112 -0,8 C -0,2 C 0,0 km/h (0 Bft)
18.11.2013 21:05 0,0 C 95 % 1010,5 hPa 0,0 l/m 0,0 km/h (0 Bft) N-NO 22 -0,7 C -0,4 C 0,0 km/h (0 Bft)
18.11.2013 21:10 0,0 C 95 % 1010,5 hPa 0,0 l/m 0,0 km/h (0 Bft) S-SO 157 -0,7 C -0,4 C 0,0 km/h (0 Bft)
18.11.2013 21:15 0,1 C 95 % 1010,5 hPa 0,0 l/m 0,8 km/h (0 Bft) NO 45 -0,6 C -0,4 C 3,7 km/h (1 Bft)
18.11.2013 21:20 0,5 C 95 % 1010,5 hPa 0,0 l/m 1,1 km/h (1 Bft) NO 45 -0,2 C -0,2 C 0,0 km/h (0 Bft)
18.11.2013 21:25 -0,1 C 95 % 1010,5 hPa 0,0 l/m 0,8 km/h (0 Bft) O-SO 112 -0,8 C -0,3 C 2,1 km/h (1 Bft)
18.11.2013 21:30 0,1 C 95 % 1010,5 hPa 0,0 l/m 0,5 km/h (0 Bft) N-NW 337 -0,6 C -0,3 C 2,1 km/h (1 Bft)
18.11.2013 21:35 -0,1 C 95 % 1010,5 hPa 0,0 l/m 0,6 km/h (0 Bft) W-NW 292 -0,8 C -0,3 C 0,0 km/h (0 Bft)
18.11.2013 21:40 -0,2 C 95 % 1010,5 hPa 0,0 l/m 0,3 km/h (0 Bft) W-NW 292 -0,9 C -0,3 C 0,0 km/h (0 Bft)
18.11.2013 21:45 -0,3 C 95 % 1010,3 hPa 0,0 l/m 0,2 km/h (0 Bft) N 360 -1,0 C -0,4 C 0,0 km/h (0 Bft)
18.11.2013 21:50 -0,3 C 95 % 1010,3 hPa 0,0 l/m 0,0 km/h (0 Bft) N-NW 337 -1,0 C -0,6 C 0,0 km/h (0 Bft)
18.11.2013 21:55 0,5 C 95 % 1010,3 hPa 0,0 l/m 1,1 km/h (1 Bft) O 90 -0,2 C -0,3 C 1,6 km/h (1 Bft)
18.11.2013 22:00 0,9 C 96 % 1010,3 hPa 0,0 l/m 2,6 km/h (1 Bft) O 90 0,3 C -0,2 C 6,1 km/h (2 Bft)
18.11.2013 22:05 1,0 C 95 % 1010,2 hPa 0,0 l/m 3,5 km/h (1 Bft) S 180 0,3 C -0,2 C 1,9 km/h (1 Bft)
18.11.2013 22:10 0,3 C 96 % 1010,2 hPa 0,0 l/m 3,1 km/h (1 Bft) N-NW 337 -0,3 C 0,1 C 0,0 km/h (0 Bft)
18.11.2013 22:15 -0,1 C 95 % 1010,2 hPa 0,0 l/m 0,8 km/h (0 Bft) NO 45 -0,8 C 0,1 C 1,6 km/h (1 Bft)
18.11.2013 22:20 0,8 C 96 % 1010,2 hPa 0,0 l/m 1,9 km/h (1 Bft) O-SO 112 0,2 C 0,0 C 6,3 km/h (2 Bft)
18.11.2013 22:25 0,9 C 96 % 1010,1 hPa 0,0 l/m 4,0 km/h (1 Bft) O 90 0,3 C -0,4 C 3,2 km/h (1 Bft)
18.11.2013 22:30 0,9 C 96 % 1010,1 hPa 0,0 l/m 4,3 km/h (1 Bft) NO 45 0,3 C -0,4 C 3,9 km/h (1 Bft)
18.11.2013 22:35 0,4 C 96 % 1010,1 hPa 0,0 l/m 2,4 km/h (1 Bft) O-SO 112 -0,2 C 0,7 C 0,0 km/h (0 Bft)
18.11.2013 22:40 0,1 C 96 % 1010,1 hPa 0,0 l/m 0,8 km/h (0 Bft) NO 45 -0,5 C 0,4 C 0,0 km/h (0 Bft)
18.11.2013 22:45 0,0 C 96 % 1009,9 hPa 0,0 l/m 0,0 km/h (0 Bft) NO 45 -0,6 C 0,0 C 0,0 km/h (0 Bft)
18.11.2013 22:50 -0,2 C 96 % 1009,9 hPa 0,0 l/m 0,3 km/h (0 Bft) N 360 -0,8 C -0,1 C 3,4 km/h (1 Bft)
18.11.2013 22:55 -0,3 C 96 % 1009,9 hPa 0,0 l/m 1,3 km/h (1 Bft) S 180 -0,9 C -0,2 C 2,1 km/h (1 Bft)
18.11.2013 23:00 0,0 C 96 % 1009,9 hPa 0,0 l/m 1,9 km/h (1 Bft) NO 45 -0,6 C -0,3 C 4,7 km/h (1 Bft)
18.11.2013 23:05 -0,1 C 96 % 1009,6 hPa 0,0 l/m 1,3 km/h (1 Bft) N-NO 22 -0,7 C -0,3 C 2,1 km/h (1 Bft)
18.11.2013 23:10 -0,3 C 96 % 1009,6 hPa 0,0 l/m 1,4 km/h (1 Bft) N-NW 337 -0,9 C -0,4 C 3,4 km/h (1 Bft)
18.11.2013 23:15 -0,5 C 96 % 1009,6 hPa 0,0 l/m 1,9 km/h (1 Bft) S-SO 157 -1,1 C -0,5 C 2,9 km/h (1 Bft)
18.11.2013 23:20 -0,4 C 96 % 1009,6 hPa 0,0 l/m 1,8 km/h (1 Bft) N-NO 22 -1,0 C -0,6 C 1,6 km/h (1 Bft)
18.11.2013 23:25 -0,7 C 96 % 1009,5 hPa 0,0 l/m 1,0 km/h (0 Bft) S 180 -1,3 C -0,7 C 3,4 km/h (1 Bft)
18.11.2013 23:30 0,1 C 96 % 1009,5 hPa 0,0 l/m 1,9 km/h (1 Bft) NO 45 -0,5 C -0,7 C 3,7 km/h (1 Bft)
18.11.2013 23:35 -0,5 C 96 % 1009,5 hPa 0,0 l/m 2,1 km/h (1 Bft) W-SW 247 -1,1 C -0,5 C 0,0 km/h (0 Bft)
18.11.2013 23:40 -0,5 C 96 % 1009,5 hPa 0,0 l/m 0,8 km/h (0 Bft) N-NW 337 -1,1 C -0,7 C 0,0 km/h (0 Bft)
18.11.2013 23:45 -0,6 C 96 % 1009,1 hPa 0,0 l/m 1,1 km/h (1 Bft) O-NO 67 -1,2 C -0,8 C 4,2 km/h (1 Bft)
18.11.2013 23:50 -0,2 C 96 % 1009,1 hPa 0,0 l/m 1,9 km/h (1 Bft) NO 45 -0,8 C -0,7 C 2,6 km/h (1 Bft)
18.11.2013 23:55 -0,1 C 96 % 1009,1 hPa 0,0 l/m 2,7 km/h (1 Bft) SW 225 -0,7 C -0,7 C 0,0 km/h (0 Bft)
_ Min-Zeit 05:10 14:05 23:55 - 22:45 - - 05:10 04:05 23:55
Minimum _ -2,1 C 75 % 1009,1 hPa - 0,0 km/h (0 Bft) - - -2,8 C -2,4 C 0,0 km/h (0 Bft)
_ Max-Zeit 14:15 10:10 00:20 23:55 16:30 - - 14:10 13:25 07:35
Maximum _ 9,8 C 97 % 1018,8 hPa 0,0 l/m 5,3 km/h
O (1 Bft)
- - 6,2 C 15,6 C 7,9 km/h
SW (2 Bft)
Durchschnitt _ 1,9 C 93 % 1013,6 hPa #0,0 l/m 1,1 km/h (1 Bft) NO - 0,9 C 3,0 C 1,4 km/h (1 Bft)